Home > Weather > Greater Sudbury > Past weeks

Flag for Canada Weather for the Past 2 Weeks in Greater Sudbury, Ontario, Canada

Now
61 °F

Scattered clouds.


Feels Like: 61 °F
Forecast: N/A
Wind: 9 mph from Northeast

Location: Sudbury

Current Time: May 2, 2016 at 7:19:51 PM

Latest Report: May 2, 2016 at 6:00 PM


Visibility: 20 mi

Pressure: 29.96 "Hg

Humidity: 25%

Dew Point: 25 °F

Location of Greater SudburyLocation

Historic Weather in Greater Sudbury — Graph

°F

Greater Sudbury Temperature Yesterday

Maximum temperature yesterday: 55 °F (at 3:00 PM)
Minimum temperature yesterday: 39 °F (at 5:00 AM)
Average temperature yesterday: 48 °F

High & Low Weather Summary for the Past Weeks

 TemperatureHumidityPressure
High68 °F (Apr 17, 6:00 PM)100% (Apr 18, 11:00 PM)30.40 "Hg (Apr 18, 11:00 PM)
Low23 °F (Apr 27, 5:00 AM)17% (Apr 23, 5:00 PM)29.83 "Hg (Apr 21, 7:00 PM)
Average41 °F53%30.15 "Hg
* Reported Apr 17 5:00 PM — May 2 5:00 PM, Greater Sudbury, Weather by CustomWeather, © 2016

Note: Actual official high and low records may vary slightly from our data, if they occured in-between our weather recording intervals... More about our weather records

Advertising

Greater Sudbury Weather History for the Previous 24 Hours

Scroll right to see more
 ConditionsComfort  
Time TempWeatherWind HumidityBarometerVisibility
5:00 PM
Mon, May 2
63 °FScattered clouds.10 mph24%29.97 "Hg20 mi
4:00 PM63 °FScattered clouds.13 mph24%29.98 "Hg20 mi
3:00 PM61 °FScattered clouds.12 mph25%29.99 "Hg20 mi
2:00 PM59 °FPassing clouds.9 mph27%30.00 "Hg20 mi
1:00 PM59 °FPassing clouds.10 mph25%30.01 "Hg20 mi
12:00 PM57 °FPassing clouds.10 mph29%30.03 "Hg20 mi
11:00 AM57 °FPassing clouds.14 mph29%30.04 "Hg20 mi
10:00 AM54 °FPassing clouds.6 mph35%30.05 "Hg20 mi
9:00 AM48 °FPassing clouds.13 mph43%30.06 "Hg20 mi
8:00 AM45 °FPassing clouds.9 mph53%30.07 "Hg20 mi
7:00 AM39 °FPassing clouds.9 mph65%30.06 "Hg20 mi
6:00 AM37 °FPassing clouds.9 mph65%30.06 "Hg20 mi
5:00 AM37 °FPassing clouds.7 mph65%30.05 "Hg15 mi
4:00 AM37 °FMostly cloudy.6 mph75%30.05 "Hg15 mi
3:00 AM37 °FMostly cloudy.7 mph75%30.06 "Hg15 mi
2:00 AM43 °FOvercast.6 mph57%30.08 "Hg15 mi
1:00 AM45 °FOvercast.2 mph46%30.09 "Hg15 mi
12:00 AM46 °FOvercast.5 mph46%30.10 "Hg15 mi
11:00 PM
Sun, May 1
48 °FPassing clouds.3 mph43%30.10 "Hg15 mi
10:00 PM48 °FPassing clouds.6 mph40%30.11 "Hg15 mi
9:00 PM52 °FPartly sunny.5 mph35%30.10 "Hg20 mi
8:00 PM54 °FPartly sunny.8 mph30%30.09 "Hg20 mi
7:00 PM55 °FPartly sunny.12 mph28%30.10 "Hg20 mi
Weather by CustomWeather, © 2016

See weather overviewHow to use our weather pages